Volver al catálogo

THOR ABLESTAR DEB

ActivoLEO
NORAD 48819·DEBRIS·🇺🇸 United States

Lanzado Jun 29, 1961 desde Cape Canaveral Space Force Station

Loading…

Próximos Pases (próximas 24 horas)

TLE

ActualizadoSource: Space-Track

Época: Sep 13, 2026, 18:01 UTC

1 48819U 61015MX  26256.75105656  .00000112  00000-0  16134-3 0  9991
2 48819  66.5339 254.2100 0022056  20.6962 339.5001 13.87281784648499

Sigue THOR ABLESTAR DEB en tiempo real con AllMySat

Download on the App Store